(2003 YN107) |
Classification: Aten [NEO] SPK-ID: 3170221 |
[ hide orbit diagram ]
For accurate long-term ephemerides, please instead use our Horizons system.This orbit viewer was implemented using two-body methods, and hence should not be used for determining accurate long-term trajectories (over several years or decades) or planetary encounter circumstances.
Orbital Elements at Epoch 2459000.5 (2020-May-31.0) TDB
Reference: JPL 17 (heliocentric ecliptic J2000)
Element | Value | Uncertainty (1-sigma) | Units |
e | .01394089337692221 | 2.1107e-07 | |
a | .9887073048543162 | 3.5761e-08 | au |
q | .9749238417363582 | 1.7389e-07 | au |
i | 4.32116932297961 | 2.6316e-05 | deg |
node | 264.3992225246647 | 6.779e-05 | deg |
peri | 87.6138467362434 | 0.00011144 | deg |
M | 341.043178903016 | 0.00054203 | deg |
tp | 2459019.408760100284 (2020-Jun-18.90876010) | 0.00054167 | TDB |
period | 359.0872964025253 0.98 | 1.9482e-05 5.334e-08 | d yr |
n | 1.002541731792293 | 5.4393e-08 | deg/d |
Q | 1.002490767972275 | 3.626e-08 | au |
|
| | Orbit Determination Parameters
Additional Information
|
[ show covariance matrix ]
[ show close-approach data ]
|